Miscellaneous Local Product
Issued by NWS North Platte, NE

Home | Current Version | Previous Version | Text Only | Print | Product List | Glossary On
Versions: 1 2 3 4 5 6 7 8 9 10 11 12 13 14 15 16 17 18 19 20 21 22 23 24 25 26 27 28 29 30 31 32 33 34 35 36 37 38 39 40 41 42 43 44 45 46 47 48 49 50
779
AXUS43 KLBF 222110
MISLBF


WESTERN AND NORTH CENTRAL NEBRASKA HOURLY WEATHER ROUNDUP
NATIONAL WEATHER SERVICE NORTH PLATTE NE
300 PM CST WED FEB 22 2017

NOTE: "FAIR" INDICATES FEW OR NO CLOUDS BELOW 12,000 FEET WITH NO
SIGNIFICANT WEATHER AND/OR OBSTRUCTIONS TO VISIBILITY.

NOTE: STATIONS NOT REPORTING VARIABLES SUCH AS SKY/WEATHER OR
PRESSURE ARE PROVIDED BY RAWS AND APRS NETWORKS AND ARE NOT UNDER
NATIONAL WEATHER SERVICE QUALITY CONTROL.

...OBSERVATIONS IN AND NEAR THE EASTERN PANHANDLE OF NEBRASKA...

CITY           SKY/WX    TMP DP  RH WIND       PRES   REMARKS
PINE RIDGE     SUNNY     57  21  24 W18G26    29.76S
CHADRON        SUNNY     56  20  24 NW22G31   29.77F
ALLIANCE       SUNNY     56  17  21 NW22G31   29.77S
SIDNEY         SUNNY     59  14  17 N18G24    29.78F
CRESCENT LAKE    N/A     57  18  21 NW16G25     N/A
$$

...OBSERVATIONS IN NORTHERN NEBRASKA AND FAR SOUTHERN SOUTH DAKOTA...

CITY           SKY/WX    TMP DP  RH WIND       PRES   REMARKS
WINNER         PTSUNNY   61  29  29 NW24G33   29.72F
VALENTINE      SUNNY     57  22  25 NW16G23   29.74F
THEDFORD       MOSUNNY   60  24  25 NW13      29.75S
AINSWORTH      MOSUNNY   58  31  36 NW13G23   29.74S
O`NEILL        SUNNY     62  31  31 NW18G26   29.72R
ORD            SUNNY     66  26  22 NW15      29.70F
BROKEN BOW     SUNNY     66  22  18 NW16      29.72F
VALENTINE NWR    N/A     60  28  29 NW13G23     N/A
BUTTE            N/A     57  33  40 NW20G29     N/A
HALSEY           N/A     63  22  21 NW9G21      N/A
CHAMBERS         N/A     62  33  34 N5          N/A
EWING            N/A     62  35  36 N15G25      N/A
$$

...OBSERVATIONS IN SOUTHWEST NEBRASKA AND FAR NORTHEAST COLORADO...

CITY           SKY/WX    TMP DP  RH WIND       PRES   REMARKS
HOLYOKE        FAIR      66  16  14 W7        29.77F
IMPERIAL       SUNNY     64  19  17 N12G18    29.76F
OGALLALA       SUNNY     63  15  16 N9G18     29.77F
NORTH PLATTE   SUNNY     65  21  18 NW16      29.75F
MCCOOK         SUNNY     68  25  19 NW10      29.75F
LEXINGTON      SUNNY     67  20  17 NW13G21   29.74S
STAPLETON        N/A     62  23  22 NW3         N/A
GOTHENBURG       N/A     64  21  19 NW9         N/A
CALLAWAY         N/A     62  22  21 NW16        N/A
$$

...OBSERVATIONS IN CENTRAL LINCOLN COUNTY AREA...

CITY           SKY/WX    TMP DP  RH WIND       PRES   REMARKS
N.P. AIRPORT   SUNNY     65  21  18 NW16      29.75F
N.P. DOWNTOWN    N/A     62  26  25 W5          N/A
N.P. SOUTHEAST   N/A     63  25  23 NW3G12      N/A
N.P. HILLCREST   N/A     62  23  22 N9G17       N/A
$$

...SOME OBSERVATIONS FROM AROUND THE REGION...

CITY           SKY/WX    TMP DP  RH WIND       PRES   REMARKS
LARAMIE        CLOUDY    32  24  72 NE8       29.83F WCI  25
CHEYENNE       CLOUDY    44  20  38 NW20      29.80F
DENVER         MOSUNNY   56  21  25 E14       29.76F
AKRON          SUNNY     59  18  20 VRB5      29.79F
SCOTTSBLUFF    SUNNY     56  17  21 W20G28    29.79F
RAPID CITY     SUNNY     56  17  21 NW24G32   29.74S
BISMARCK       LGT SNOW  35  32  88 N17       29.86R FOG     WCI  25
PIERRE         MOSUNNY   53  36  52 NW22G30   29.72S
SIOUX FALLS    PTSUNNY   58  43  57 W20G30    29.64R
OMAHA          MOSUNNY   73  36  25 NW17      29.62S
GRAND ISLAND   SUNNY     69  23  17 NW18G26   29.69F
KANSAS CITY    PTSUNNY   79  34  19 W14       29.64F
WICHITA        MOSUNNY   75  45  34 S9        29.67F
OKLAHOMA CITY  MOSUNNY   80  36  20 SW12      29.71F
DALLAS         MOSUNNY   86  39  19 S15       29.74F
AMARILLO       MOSUNNY   79  24  13 W18G26    29.82F
DODGE CITY     SUNNY     74  27  17 NW10G17   29.74F
HAYS             N/A     70  33  25 N7        29.73F
GOODLAND       SUNNY     64  20  18 VRB6      29.78F
$$




USA.gov is the U.S. government's official web portal to all federal, state and local government web resources and services.